EHI
0 0 0 0 0 0 0 0 0 0 0 0 0 0 0 0 0 0 0 0 0 0 0 0 0 0 0 0 0 0 0 0 0 0 0 0 0 0
0 0 0 0 0 0 0 0 0 0 0 0 0 0 0 0 0 0 0 0 0 0 0 0 0 0 0 0 0 0 0 0 0 0 0 0 0 0
0 0 0 0 0 0 0 0 0 0 0 0 0 0 0 0 0 0 0 0 0 0 0 0 0 0 0 0 0 0 0 0 0 0 0 0 0 0
0 0 0 0 0 0 0 0 0 0 0 0 0 0 0 0 0 0 0 0 0 0 0 0 0 0 0 0 0 0 0 0 0 0 0 0 0 0
0 0 0 0 0 0 0 0 0 0 0 0 0 0 0 0 0 0 0 0 0 0 0 0 0 0 0 0 0 0 0 0 0 0 0 0 0 0
0 0 0 0 0 0 0 0 0 0 0 0 0 0 0 0 0 0 0 0 0 0 0 0 0 0 0 0 0 0 0 0 0 0 0 0 0 0
0 0 0 0 0 0 0 0 0 0 0 0 0 0 0 0 0 0 0 0 0 0 0 0 0 0 0 0 0 0 0 0 0 0 0 0 0 0
0 0 0 0 0 0 0 0 0 0 0 0 0 0 0 0 0 0 0 0 0 0 0 0 0 0 0 0 0 0 0 0 0 0 0 0 0 0
0 0 0 0 0 0 0 0 0 0 0 0 0 0 0 0 0 0 0 0 0 0 0 0 0 0 0 0 0 0 0 0 0 0 0 0 0 0
0 0 0 0 0 0 0 0 0 0 0 0 0 0 0 0 0 0 0 0 0 0 0 0 0 0 0 0 0 0 0 0 0 0 0 0 0 0
0 0 0 0 0 0 0 0 0 0 0 0 0 0 0 0 0 0 0 0 0 0 0 0 0 0 0 0 0 0 0 0 0 0 0 0 0 0
0 0 0 0 0 0 0 0 0 0 0 0 0 0 0 0 0 0 0 0 0 0 0 0 0 0 0 0 0 0 0 0 0 0 0 0 0 0
0 0 0 0 0 0 0 0 0 0 0 0 0 0 0 0 0 0 0 0 0 0 0 0 0 0 0 0 0 0 0 0 0 0 0 0 0 0
0 0 0 0 0 0 0 0 0 0 0 0 0 0 0 0 0 0 0 0 0 0 0 0 0 0 0 0 0 0 0 0 0 0 0 0 0 0
0 0 0 0 0 0 0 0 0 0 0 0 0 0 0 0 0 0 0 0 0 0 0 0 0 0 0 0 0 0 0 0 0 0 0 0 0 0
0 0 0 0 0 0 0 0 0 0 0 0 0 0 0 0 0 0 0 0 0 0 0 0 0 0 0 0 0 0 0 0 0 0 0 0 0 0
0 0 0 0 0 0 0 0 0 0 0 0 0 0 0 0 0 0 0 0 0 0 0 0 0 0 0 0 0 0 0 0 0 0 0 0 0 0
0 0 0 0 0 0 0 0 0 0 0 0 0 0 0 0 0 0 0 0 0 0 0 0 0 0 0 0 0 0 0 0 0 0 0 0 0 0
0 0 0 0 0 0 0 0 0 0 0 0 0 0 0 0 0 0 0 0 0 0 0 0 0 0 0 0 0 0 0 0 0 0 0 0 0 0
0 0 0 0 0 0 0 0 0 0 0 0 0 0 0 0 0 0 0 0 0 0 0 0 0 0 0 0 0 0 0 0 0 0 0 0 0 0
0 0 0 0 0 0 0 0 0 0 0 0 0 0 0 0 0 0 0 0 0 0 0 0 0 0 0 0 0 0 0 0 0 0 0 0 0 0
0 0 0 0 0 0 0 0 0 0 0 0 0 0 0 0 0 0 0 0 0 0 0 0 0 0 0 0 0 0 0 0 0 0 0 0 0 0
0 0 0 0 0 0 0 0 0 0 0 0 0 0 0 0 0 0 0 0 0 0 0 0 0 0 0 0 0 0 0 0 0 0 0 0 0 0
Wind_Speed
6 7 5 4 4 4 3 3 2 3 3 2 2 1 1 1 2 2 3 6 9 11 13 14 15 16 16 16 17 17 18 18 19 19 20 20 21 21
5 6 6 4 4 4 4 3 2 2 3 3 3 3 3 4 4 3 4 10 12 14 15 15 15 16 17 18 18 18 18 18 19 19 20 20 21 21
5 6 5 5 4 4 4 4 4 3 3 4 3 4 4 4 5 4 5 6 7 12 12 13 14 16 18 18 18 18 18 18 19 19 19 20 21 21
5 5 5 5 5 4 4 4 3 3 3 5 4 5 5 5 5 5 6 7 5 10 11 11 14 15 16 17 18 17 17 17 19 19 19 19 20 20
4 4 4 4 5 5 5 5 4 5 4 4 5 5 4 5 4 5 6 5 7 9 9 9 10 13 14 15 16 16 15 15 15 17 18 19 19 20
3 4 3 3 4 5 5 5 5 6 5 5 5 5 4 4 4 4 5 4 6 8 7 8 8 9 12 13 13 14 13 13 13 13 14 15 17 18
4 4 4 2 1 3 4 4 5 5 6 6 6 6 5 5 5 4 6 5 6 4 4 5 5 4 5 7 9 9 9 10 12 12 13 13 14 15
4 5 5 1 1 4 8 9 9 7 7 6 7 7 7 6 5 6 5 6 5 3 4 6 5 4 4 3 3 6 8 9 10 11 12 13 13 14
4 4 5 5 5 6 8 10 9 10 11 8 8 9 8 7 6 7 6 7 7 6 5 6 4 4 4 2 3 5 8 9 10 11 12 12 12 13
4 3 3 3 5 6 8 8 8 7 8 6 6 7 8 6 5 6 7 8 7 5 3 4 4 4 5 2 4 6 7 9 10 11 10 11 11 12
4 4 4 3 4 6 7 8 8 7 8 9 10 11 13 14 10 5 6 6 7 6 3 3 4 5 4 2 2 3 6 8 9 9 9 9 10 11
4 2 2 3 5 6 6 7 8 8 9 11 9 10 9 10 10 7 6 5 6 5 2 3 3 3 4 3 3 2 3 5 7 7 7 8 9 6
6 4 2 4 9 10 8 7 9 9 9 9 8 7 6 5 4 3 4 4 5 4 4 3 3 3 3 4 3 3 3 3 3 4 4 6 7 6
6 5 6 11 13 14 10 9 12 10 7 6 6 5 5 4 4 3 3 3 4 4 4 2 2 2 3 3 3 4 3 3 3 3 3 4 5 6
5 10 13 15 13 10 9 11 9 6 5 5 5 5 4 4 4 3 3 3 3 2 2 1 1 2 2 3 3 4 3 3 3 3 3 4 4 5
7 11 13 12 8 8 9 7 4 4 4 4 4 4 4 4 3 2 2 3 2 2 1 1 1 1 2 4 3 4 4 4 4 4 3 3 4 5
8 7 5 4 4 4 4 4 3 4 4 4 3 4 4 4 4 3 2 2 3 3 3 2 0 2 3 3 4 5 4 4 3 4 3 3 4 5
6 5 4 4 5 5 5 5 4 4 4 4 4 4 4 4 4 3 3 3 3 3 3 3 2 1 0 1 2 5 5 4 4 3 3 3 3 3
4 4 4 4 5 5 5 5 5 5 5 5 4 4 4 4 4 3 3 3 3 3 3 3 3 3 4 4 2 2 4 5 4 3 3 2 2 2
3 4 4 4 5 5 5 5 5 5 5 5 5 5 4 4 4 4 3 3 3 2 2 2 2 2 2 2 2 1 2 4 4 4 3 0 1 0
5 5 4 4 5 5 5 5 5 5 6 6 6 6 5 4 4 4 3 3 2 2 2 1 2 2 2 1 1 1 0 1 2 2 4 3 1 2
5 6 5 5 5 6 6 6 6 6 7 7 7 7 6 5 5 5 4 3 3 2 2 1 1 1 1 0 0 1 1 2 2 1 2 2 2 2
5 5 6 6 6 6 7 8 8 8 8 8 9 8 7 5 4 4 4 4 4 4 3 2 2 1 1 1 1 1 1 2 2 2 1 2 3 3
Wind_Direction
43 40 33 31 22 10 8 8 0 341 329 344 1 16 13 87 177 259 288 288 281 265 260 260 266 272 275 278 282 284 285 286 287 287 286 286 286 285
38 38 30 20 15 1 350 350 349 342 329 343 341 357 1 331 314 302 288 287 278 267 262 260 259 262 267 272 278 282 284 286 287 287 288 288 287 287
30 31 22 19 11 350 353 353 354 358 332 316 325 331 326 307 296 283 282 274 272 272 266 258 254 255 258 265 271 276 279 282 285 287 288 289 289 288
30 24 16 15 5 357 352 341 337 323 319 318 313 305 302 296 287 287 294 298 298 295 283 262 255 255 257 260 264 267 270 273 277 282 285 287 287 287
26 12 7 17 9 2 338 341 337 339 326 311 306 302 298 300 308 306 305 303 303 303 299 280 267 266 264 264 264 265 266 268 272 276 279 282 284 285
12 355 359 22 14 351 333 345 342 332 318 310 302 303 303 314 323 316 311 306 303 304 310 308 295 283 273 270 268 267 267 267 268 271 273 276 279 281
358 350 345 4 358 296 322 331 323 319 315 311 312 312 318 330 328 318 312 309 301 300 316 308 301 292 285 274 269 264 260 263 267 271 273 274 275 276
351 346 328 37 317 274 281 286 282 287 298 304 304 309 313 318 319 314 314 315 311 311 316 303 300 295 286 281 253 246 251 262 270 276 277 276 276 276
334 332 338 1 13 357 336 319 301 285 266 265 282 290 297 305 313 312 312 309 299 298 301 296 300 300 295 296 231 247 263 273 278 282 283 283 283 282
326 334 342 10 28 356 329 321 316 313 300 275 266 276 285 291 293 291 291 294 290 292 297 293 304 309 312 299 238 254 273 285 291 293 293 293 294 292
340 1 360 26 24 345 325 321 320 320 325 321 291 279 279 279 272 281 287 296 304 310 317 295 303 314 306 316 313 278 291 298 301 305 305 307 310 308
342 3 60 2 337 329 321 316 314 320 324 318 309 296 283 277 266 240 255 280 294 303 322 316 307 326 313 313 328 326 310 308 310 314 319 324 328 324
337 338 3 338 325 318 308 286 290 305 306 301 302 302 301 293 280 248 236 247 275 287 304 323 309 318 298 299 309 325 339 337 337 337 325 325 333 336
324 334 334 323 317 310 301 287 298 304 292 299 309 313 315 316 313 304 279 263 257 269 287 305 292 311 312 310 311 321 332 350 354 349 345 343 340 345
315 322 315 307 305 302 301 304 303 293 296 309 316 314 312 316 318 316 313 303 297 307 321 326 330 323 324 323 325 330 328 336 348 344 352 7 10 8
344 323 313 305 297 292 300 305 295 297 307 313 317 314 318 326 326 325 331 333 336 334 332 356 35 14 0 346 344 341 340 334 337 341 351 22 29 29
324 307 308 328 337 336 333 329 326 335 331 325 332 335 339 343 336 338 357 353 355 358 355 350 102 126 96 21 353 348 342 340 335 336 352 35 44 34
313 309 329 347 347 344 345 348 348 349 341 340 349 349 345 348 350 349 3 6 3 2 356 356 6 356 237 101 39 348 343 338 333 341 360 37 42 36
301 323 348 348 345 347 354 354 347 346 344 343 348 351 348 349 351 350 2 6 9 8 0 358 12 13 9 3 0 36 349 337 341 355 14 41 40 30
355 351 348 346 348 350 354 353 345 345 350 346 347 345 342 342 344 342 356 9 1 1 3 2 10 16 11 341 329 353 20 352 345 346 344 46 86 140
4 350 347 350 353 353 356 351 347 351 355 352 346 340 338 339 339 345 355 9 357 349 354 333 294 245 244 266 341 325 30 36 5 344 335 344 19 27
6 351 344 354 360 359 358 354 356 360 0 355 343 336 334 337 342 349 357 360 354 342 335 301 253 225 255 314 326 257 234 200 176 107 47 21 11 21
7 349 344 1 9 3 359 358 5 5 360 351 341 334 332 338 342 349 354 4 360 350 341 338 334 321 286 270 265 260 236 208 192 188 208 230 223 243